Time,TemperatureF,DewpointF,PressureIn,WindDirection,WindDirectionDegrees,WindSpeedMPH,WindSpeedGustMPH,Humidity,HourlyPrecipIn,Conditions,Clouds,dailyrainin,SoftwareType,DateUTC
2013-04-19 00:01:00,42.2,28.5,29.95,SW,224,6.3,6.3,58,0.00,,,0.91,VWS V13.01,2013-04-19 05:01:00,
2013-04-19 00:06:00,42.2,28.5,29.95,WSW,256,8.3,10.1,58,0.00,,,0.00,VWS V13.01,2013-04-19 05:06:00,
2013-04-19 00:11:00,42.2,28.1,29.95,West,277,8.3,12.3,57,0.00,,,0.00,VWS V13.01,2013-04-19 05:11:00,
2013-04-19 00:16:00,42.2,28.5,29.98,WSW,251,5.8,8.3,58,0.00,,,0.00,VWS V13.01,2013-04-19 05:16:00,
2013-04-19 00:21:00,42.2,28.5,29.98,West,267,6.3,12.8,58,0.00,,,0.00,VWS V13.01,2013-04-19 05:21:00,
2013-04-19 00:25:00,42.2,28.5,29.98,WSW,244,6.3,7.6,58,0.00,,,0.00,VWS V13.01,2013-04-19 05:25:00,
2013-04-19 00:30:00,42.2,28.5,29.98,NW,323,8.1,8.1,58,0.00,,,0.00,VWS V13.01,2013-04-19 05:30:00,
2013-04-19 00:35:00,42.2,28.5,29.98,WSW,245,7.6,7.6,58,0.00,,,0.00,VWS V13.01,2013-04-19 05:35:00,
2013-04-19 00:40:00,42.2,28.5,29.98,WSW,248,6.3,6.3,58,0.00,,,0.00,VWS V13.01,2013-04-19 05:40:00,
2013-04-19 00:45:00,42.1,28.4,29.98,WSW,246,5.4,8.7,58,0.00,,,0.00,VWS V13.01,2013-04-19 05:45:00,
2013-04-19 00:50:00,42.1,28.4,29.98,SW,231,5.8,6.3,58,0.00,,,0.00,VWS V13.01,2013-04-19 05:50:00,
2013-04-19 00:55:00,42.1,28.4,29.98,West,260,5.4,8.3,58,0.00,,,0.00,VWS V13.01,2013-04-19 05:55:00,
2013-04-19 01:00:00,41.9,28.2,29.98,WSW,253,7.2,12.8,58,0.00,,,0.00,VWS V13.01,2013-04-19 06:00:00,
2013-04-19 01:05:00,41.9,28.2,29.98,West,261,7.6,9.2,58,0.00,,,0.00,VWS V13.01,2013-04-19 06:05:00,
2013-04-19 01:10:00,41.7,28.0,29.98,WSW,246,7.6,12.8,58,0.00,,,0.00,VWS V13.01,2013-04-19 06:10:00,
2013-04-19 01:15:00,41.7,28.0,29.98,WSW,257,12.8,12.8,58,0.00,,,0.00,VWS V13.01,2013-04-19 06:15:00,
2013-04-19 01:20:00,41.7,28.0,29.98,SW,228,8.1,8.7,58,0.00,,,0.00,VWS V13.01,2013-04-19 06:20:00,
2013-04-19 01:25:00,41.5,27.9,29.98,SW,232,11.0,12.8,58,0.00,,,0.00,VWS V13.01,2013-04-19 06:25:00,
2013-04-19 01:30:00,41.5,27.9,29.98,SW,228,8.1,8.1,58,0.00,,,0.00,VWS V13.01,2013-04-19 06:30:00,
2013-04-19 01:35:00,41.5,27.9,29.98,WSW,246,5.4,8.1,58,0.00,,,0.00,VWS V13.01,2013-04-19 06:35:00,
2013-04-19 01:40:00,41.3,27.3,29.98,WSW,253,12.8,12.8,57,0.00,,,0.00,VWS V13.01,2013-04-19 06:40:00,
2013-04-19 01:45:00,41.3,27.7,29.98,WNW,287,8.1,10.5,58,0.00,,,0.00,VWS V13.01,2013-04-19 06:45:00,
2013-04-19 01:50:00,41.0,27.4,29.98,West,265,11.0,11.0,58,0.00,,,0.00,VWS V13.01,2013-04-19 06:50:00,
2013-04-19 01:55:00,41.0,27.4,29.98,West,266,10.5,13.2,58,0.00,,,0.00,VWS V13.01,2013-04-19 06:55:00,
2013-04-19 02:00:00,40.8,27.2,29.98,WSW,252,5.8,10.5,58,0.00,,,0.00,VWS V13.01,2013-04-19 07:00:00,
2013-04-19 02:05:00,40.6,27.0,29.98,West,265,5.4,8.1,58,0.00,,,0.00,VWS V13.01,2013-04-19 07:05:00,
2013-04-19 02:10:00,40.4,26.4,29.98,West,261,9.2,9.2,57,0.00,,,0.00,VWS V13.01,2013-04-19 07:10:00,
2013-04-19 02:15:00,40.3,26.3,29.98,West,264,5.8,6.3,57,0.00,,,0.00,VWS V13.01,2013-04-19 07:15:00,
2013-04-19 02:20:00,40.3,26.7,29.98,West,281,5.8,8.3,58,0.00,,,0.00,VWS V13.01,2013-04-19 07:20:00,
2013-04-19 02:25:00,40.1,25.2,29.98,West,268,10.5,10.5,55,0.00,,,0.00,VWS V13.01,2013-04-19 07:25:00,
2013-04-19 02:30:00,39.9,24.6,29.98,WSW,249,4.5,11.0,54,0.00,,,0.00,VWS V13.01,2013-04-19 07:30:00,
2013-04-19 02:35:00,39.7,24.0,29.98,WNW,289,8.7,11.4,53,0.00,,,0.00,VWS V13.01,2013-04-19 07:35:00,
2013-04-19 02:40:00,39.7,24.5,29.98,WSW,249,5.8,7.6,54,0.00,,,0.00,VWS V13.01,2013-04-19 07:40:00,
2013-04-19 02:45:00,39.5,23.4,29.98,WSW,239,8.3,10.1,52,0.00,,,0.00,VWS V13.01,2013-04-19 07:45:00,
2013-04-19 02:50:00,39.5,24.3,29.98,West,261,4.0,5.8,54,0.00,,,0.00,VWS V13.01,2013-04-19 07:50:00,
2013-04-19 02:55:00,39.5,24.3,29.98,WSW,257,3.1,4.0,54,0.00,,,0.00,VWS V13.01,2013-04-19 07:55:00,
2013-04-19 03:00:00,39.4,24.1,29.98,West,268,3.6,6.3,54,0.00,,,0.00,VWS V13.01,2013-04-19 08:00:00,
2013-04-19 03:05:00,39.4,23.7,29.98,WSW,249,8.7,8.7,53,0.00,,,0.00,VWS V13.01,2013-04-19 08:05:00,
2013-04-19 03:10:00,39.2,23.0,29.98,West,259,8.1,8.1,52,0.00,,,0.00,VWS V13.01,2013-04-19 08:10:00,
2013-04-19 03:15:00,39.2,23.0,29.98,West,274,8.3,8.3,52,0.00,,,0.00,VWS V13.01,2013-04-19 08:15:00,
2013-04-19 03:20:00,39.0,23.3,29.98,WSW,244,8.1,8.1,53,0.00,,,0.00,VWS V13.01,2013-04-19 08:20:00,
2013-04-19 03:25:00,39.0,23.8,29.98,WSW,241,6.3,6.3,54,0.00,,,0.00,VWS V13.01,2013-04-19 08:25:00,
2013-04-19 03:30:00,38.6,23.0,29.98,SW,234,5.8,10.5,53,0.00,,,0.00,VWS V13.01,2013-04-19 08:30:00,
2013-04-19 03:35:00,38.5,23.3,29.98,SW,231,5.8,6.3,54,0.00,,,0.00,VWS V13.01,2013-04-19 08:35:00,
2013-04-19 03:40:00,38.3,23.5,29.98,West,262,5.8,5.8,55,0.00,,,0.00,VWS V13.01,2013-04-19 08:40:00,
2013-04-19 03:45:00,37.9,23.2,29.98,WSW,242,5.4,6.3,55,0.00,,,0.00,VWS V13.01,2013-04-19 08:45:00,
2013-04-19 03:50:00,37.7,23.9,29.98,WSW,237,5.8,5.8,57,0.00,,,0.00,VWS V13.01,2013-04-19 08:50:00,
2013-04-19 03:55:00,37.6,24.1,29.98,SW,234,3.6,6.3,58,0.00,,,0.00,VWS V13.01,2013-04-19 08:55:00,
2013-04-19 04:00:00,37.6,24.1,29.98,WSW,250,5.4,5.4,58,0.00,,,0.00,VWS V13.01,2013-04-19 09:00:00,
2013-04-19 04:05:00,37.4,24.4,29.98,WSW,253,6.3,6.3,59,0.00,,,0.00,VWS V13.01,2013-04-19 09:05:00,
2013-04-19 04:10:00,37.4,24.4,29.98,SW,224,4.5,5.4,59,0.00,,,0.00,VWS V13.01,2013-04-19 09:10:00,
2013-04-19 04:15:00,37.4,24.4,29.98,SW,228,4.5,4.9,59,0.00,,,0.00,VWS V13.01,2013-04-19 09:15:00,
2013-04-19 04:20:00,37.2,24.6,29.98,SW,235,4.0,4.0,60,0.00,,,0.00,VWS V13.01,2013-04-19 09:20:00,
2013-04-19 04:25:00,37.2,24.6,29.98,West,267,5.4,5.8,60,0.00,,,0.00,VWS V13.01,2013-04-19 09:25:00,
2013-04-19 04:30:00,37.2,24.6,29.98,WSW,251,5.4,5.4,60,0.00,,,0.00,VWS V13.01,2013-04-19 09:30:00,
2013-04-19 04:35:00,37.2,25.0,29.98,WSW,243,7.6,8.1,61,0.00,,,0.00,VWS V13.01,2013-04-19 09:35:00,
2013-04-19 04:40:00,37.2,25.0,29.98,SW,236,5.8,5.8,61,0.00,,,0.00,VWS V13.01,2013-04-19 09:40:00,
2013-04-19 04:45:00,37.2,25.0,29.98,SW,214,8.1,8.1,61,0.00,,,0.00,VWS V13.01,2013-04-19 09:45:00,
2013-04-19 04:50:00,37.4,25.6,29.98,WSW,245,5.8,8.7,62,0.00,,,0.00,VWS V13.01,2013-04-19 09:50:00,
2013-04-19 04:55:00,37.4,25.2,29.98,West,266,5.4,5.4,61,0.00,,,0.00,VWS V13.01,2013-04-19 09:55:00,
2013-04-19 05:00:00,37.4,25.2,29.98,SW,223,5.8,5.8,61,0.00,,,0.00,VWS V13.01,2013-04-19 10:00:00,
2013-04-19 05:05:00,37.6,25.4,29.98,SW,229,7.6,7.6,61,0.00,,,0.00,VWS V13.01,2013-04-19 10:05:00,
2013-04-19 05:10:00,37.6,25.0,29.98,WSW,248,7.6,12.3,60,0.00,,,0.00,VWS V13.01,2013-04-19 10:10:00,
2013-04-19 05:15:00,37.6,25.4,29.98,WSW,239,4.0,5.8,61,0.00,,,0.00,VWS V13.01,2013-04-19 10:15:00,
2013-04-19 05:20:00,37.4,24.8,29.98,SW,218,6.3,6.3,60,0.00,,,0.00,VWS V13.01,2013-04-19 10:20:00,
2013-04-19 05:25:00,37.4,24.8,29.98,WSW,238,7.2,7.2,60,0.00,,,0.00,VWS V13.01,2013-04-19 10:25:00,
2013-04-19 05:30:00,37.2,24.6,29.98,WSW,237,5.8,8.7,60,0.00,,,0.00,VWS V13.01,2013-04-19 10:30:00,
2013-04-19 05:35:00,37.4,24.8,29.98,SW,221,5.4,7.6,60,0.00,,,0.00,VWS V13.01,2013-04-19 10:35:00,
2013-04-19 05:40:00,37.4,24.8,29.98,WSW,247,8.7,8.7,60,0.00,,,0.00,VWS V13.01,2013-04-19 10:40:00,
2013-04-19 05:45:00,37.4,24.8,29.98,WSW,243,5.4,8.7,60,0.00,,,0.00,VWS V13.01,2013-04-19 10:45:00,
2013-04-19 05:50:00,37.4,24.8,29.98,WSW,238,7.6,7.6,60,0.00,,,0.00,VWS V13.01,2013-04-19 10:50:00,
2013-04-19 05:55:00,37.0,24.4,29.98,SW,219,7.6,8.3,60,0.00,,,0.00,VWS V13.01,2013-04-19 10:55:00,
2013-04-19 06:00:00,36.8,24.7,30.01,WSW,246,5.8,8.1,61,0.00,,,0.00,VWS V13.01,2013-04-19 11:00:00,
2013-04-19 06:05:00,36.8,24.7,30.01,WSW,239,6.3,6.3,61,0.00,,,0.00,VWS V13.01,2013-04-19 11:05:00,
2013-04-19 06:10:00,36.7,24.5,30.01,SW,225,5.8,6.3,61,0.00,,,0.00,VWS V13.01,2013-04-19 11:10:00,
2013-04-19 06:15:00,36.5,24.3,30.01,WSW,240,6.3,8.1,61,0.00,,,0.00,VWS V13.01,2013-04-19 11:15:00,
2013-04-19 06:20:00,36.3,24.1,30.01,SW,236,5.4,6.3,61,0.00,,,0.00,VWS V13.01,2013-04-19 11:20:00,
2013-04-19 06:25:00,36.1,24.4,30.01,WSW,249,6.3,6.3,62,0.00,,,0.00,VWS V13.01,2013-04-19 11:25:00,
2013-04-19 06:30:00,36.1,24.4,30.01,SW,236,5.4,5.8,62,0.00,,,0.00,VWS V13.01,2013-04-19 11:30:00,
2013-04-19 06:35:00,35.9,24.2,30.01,SW,232,4.0,4.9,62,0.00,,,0.00,VWS V13.01,2013-04-19 11:35:00,
2013-04-19 06:39:00,35.9,24.2,30.01,SW,234,8.1,8.1,62,0.00,,,0.00,VWS V13.01,2013-04-19 11:39:00,
2013-04-19 06:44:00,35.8,24.0,30.04,SW,232,5.8,6.3,62,0.00,,,0.00,VWS V13.01,2013-04-19 11:44:00,
2013-04-19 06:49:00,35.6,23.9,30.04,SW,222,5.4,5.8,62,0.00,,,0.00,VWS V13.01,2013-04-19 11:49:00,
2013-04-19 06:54:00,35.6,24.2,30.04,SW,235,5.8,5.8,63,0.00,,,0.00,VWS V13.01,2013-04-19 11:54:00,
2013-04-19 06:59:00,35.6,24.2,30.04,WSW,250,4.0,4.0,63,0.00,,,0.00,VWS V13.01,2013-04-19 11:59:00,
2013-04-19 07:04:00,35.4,24.5,30.04,SW,228,5.8,5.8,64,0.00,,,0.00,VWS V13.01,2013-04-19 12:04:00,
2013-04-19 07:09:00,35.2,24.3,30.04,SW,232,8.3,8.7,64,0.00,,,0.00,VWS V13.01,2013-04-19 12:09:00,
2013-04-19 07:14:00,35.4,24.5,30.04,SW,227,5.8,5.8,64,0.00,,,0.00,VWS V13.01,2013-04-19 12:14:00,
2013-04-19 07:19:00,35.4,24.8,30.04,WSW,242,5.8,5.8,65,0.00,,,0.00,VWS V13.01,2013-04-19 12:19:00,
2013-04-19 07:24:00,35.6,24.6,30.04,SSW,194,6.3,7.6,64,0.00,,,0.00,VWS V13.01,2013-04-19 12:24:00,
2013-04-19 07:29:00,35.8,24.4,30.04,WSW,256,5.4,7.6,63,0.00,,,0.00,VWS V13.01,2013-04-19 12:29:00,
2013-04-19 07:34:00,35.9,24.6,30.04,SSW,206,4.0,7.6,63,0.00,,,0.00,VWS V13.01,2013-04-19 12:34:00,
2013-04-19 07:39:00,36.1,25.1,30.04,SW,234,6.3,6.3,64,0.00,,,0.00,VWS V13.01,2013-04-19 12:39:00,
2013-04-19 07:44:00,36.5,25.1,30.07,WSW,240,4.0,4.9,63,0.00,,,0.00,VWS V13.01,2013-04-19 12:44:00,
2013-04-19 07:49:00,36.7,24.9,30.07,SW,236,5.8,7.6,62,0.00,,,0.00,VWS V13.01,2013-04-19 12:49:00,
2013-04-19 07:54:00,37.0,25.2,30.07,SSW,206,5.4,8.1,62,0.00,,,0.00,VWS V13.01,2013-04-19 12:54:00,
2013-04-19 07:59:00,37.4,25.2,30.07,SW,216,6.3,10.5,61,0.00,,,0.00,VWS V13.01,2013-04-19 12:59:00,
2013-04-19 08:04:00,37.7,25.5,30.07,SW,229,7.6,8.7,61,0.00,,,0.00,VWS V13.01,2013-04-19 13:04:00,
2013-04-19 08:09:00,37.7,25.1,30.07,West,274,7.6,8.7,60,0.00,,,0.00,VWS V13.01,2013-04-19 13:09:00,
2013-04-19 08:14:00,38.1,25.5,30.07,WSW,252,8.1,8.1,60,0.00,,,0.00,VWS V13.01,2013-04-19 13:14:00,
2013-04-19 08:19:00,38.5,25.8,30.07,WSW,258,8.1,10.5,60,0.00,,,0.00,VWS V13.01,2013-04-19 13:19:00,
2013-04-19 08:24:00,38.5,25.4,30.07,WSW,237,7.6,7.6,59,0.00,,,0.00,VWS V13.01,2013-04-19 13:24:00,
2013-04-19 08:29:00,38.6,25.6,30.07,WSW,237,5.4,6.3,59,0.00,,,0.00,VWS V13.01,2013-04-19 13:29:00,
2013-04-19 08:34:00,38.8,25.7,30.07,SW,226,11.0,11.0,59,0.00,,,0.00,VWS V13.01,2013-04-19 13:34:00,
2013-04-19 08:39:00,38.8,25.3,30.07,West,269,8.1,8.3,58,0.00,,,0.00,VWS V13.01,2013-04-19 13:39:00,
2013-04-19 08:44:00,39.2,25.7,30.07,SW,227,5.8,11.9,58,0.00,,,0.00,VWS V13.01,2013-04-19 13:44:00,
2013-04-19 08:49:00,39.4,25.8,30.07,West,264,10.1,12.3,58,0.00,,,0.00,VWS V13.01,2013-04-19 13:49:00,
2013-04-19 08:54:00,39.5,26.0,30.07,WSW,253,8.7,8.7,58,0.00,,,0.00,VWS V13.01,2013-04-19 13:54:00,
2013-04-19 08:59:00,39.7,26.2,30.07,SW,226,13.6,13.6,58,0.00,,,0.00,VWS V13.01,2013-04-19 13:59:00,
2013-04-19 09:04:00,39.9,26.8,30.07,West,266,8.7,8.7,59,0.00,,,0.00,VWS V13.01,2013-04-19 14:04:00,
2013-04-19 09:09:00,40.3,25.4,30.07,WNW,288,7.6,9.6,55,0.00,,,0.00,VWS V13.01,2013-04-19 14:09:00,
2013-04-19 09:14:00,40.6,26.6,30.07,West,262,4.0,4.0,57,0.00,,,0.00,VWS V13.01,2013-04-19 14:14:00,
2013-04-19 09:19:00,41.3,25.0,30.07,West,259,8.7,10.1,52,0.00,,,0.00,VWS V13.01,2013-04-19 14:19:00,
2013-04-19 09:24:00,41.7,25.4,30.07,WSW,254,5.8,9.2,52,0.00,,,0.00,VWS V13.01,2013-04-19 14:24:00,
2013-04-19 09:29:00,42.1,25.3,30.07,West,274,10.5,10.5,51,0.00,,,0.00,VWS V13.01,2013-04-19 14:29:00,
2013-04-19 09:34:00,41.7,24.5,30.07,WSW,252,9.2,11.0,50,0.00,,,0.00,VWS V13.01,2013-04-19 14:34:00,
2013-04-19 09:39:00,41.3,24.6,30.07,WSW,251,9.6,9.6,51,0.00,,,0.00,VWS V13.01,2013-04-19 14:39:00,
2013-04-19 09:44:00,41.7,24.5,30.07,WSW,253,8.7,8.7,50,0.00,,,0.00,VWS V13.01,2013-04-19 14:44:00,
2013-04-19 09:49:00,42.2,25.0,30.07,SSW,211,13.6,13.6,50,0.00,,,0.00,VWS V13.01,2013-04-19 14:49:00,
2013-04-19 09:54:00,42.6,24.8,30.07,NW,317,8.3,8.3,49,0.00,,,0.00,VWS V13.01,2013-04-19 14:54:00,
2013-04-19 09:59:00,42.8,25.5,30.07,WSW,238,10.5,12.8,50,0.00,,,0.00,VWS V13.01,2013-04-19 14:59:00,
2013-04-19 10:04:00,43.1,25.8,30.07,WSW,253,11.9,11.9,50,0.00,,,0.00,VWS V13.01,2013-04-19 15:04:00,
2013-04-19 10:09:00,43.0,25.1,30.07,SW,235,5.8,5.8,49,0.00,,,0.00,VWS V13.01,2013-04-19 15:09:00,
2013-04-19 10:14:00,43.7,26.3,30.07,WSW,248,7.6,7.6,50,0.00,,,0.00,VWS V13.01,2013-04-19 15:14:00,
2013-04-19 10:19:00,43.9,26.0,30.07,West,277,10.1,10.1,49,0.00,,,0.00,VWS V13.01,2013-04-19 15:19:00,
2013-04-19 10:24:00,44.2,26.3,30.07,WNW,302,5.4,5.4,49,0.00,,,0.00,VWS V13.01,2013-04-19 15:24:00,
2013-04-19 10:29:00,44.0,26.1,30.07,West,268,13.6,13.6,49,0.00,,,0.00,VWS V13.01,2013-04-19 15:29:00,
2013-04-19 10:34:00,43.3,25.5,30.07,WSW,255,8.3,8.3,49,0.00,,,0.00,VWS V13.01,2013-04-19 15:34:00,
2013-04-19 10:39:00,43.5,25.1,30.07,WNW,298,5.8,8.7,48,0.00,,,0.00,VWS V13.01,2013-04-19 15:39:00,
2013-04-19 10:44:00,44.4,26.5,30.07,West,264,5.8,5.8,49,0.00,,,0.00,VWS V13.01,2013-04-19 15:44:00,
2013-04-19 10:49:00,44.6,26.1,30.07,WSW,246,10.1,10.1,48,0.00,,,0.00,VWS V13.01,2013-04-19 15:49:00,
2013-04-19 10:54:00,45.1,26.6,30.07,SW,222,8.3,10.5,48,0.00,,,0.00,VWS V13.01,2013-04-19 15:54:00,
2013-04-19 10:59:00,45.3,26.8,30.07,SW,226,8.7,8.7,48,0.00,,,0.00,VWS V13.01,2013-04-19 15:59:00,
2013-04-19 11:04:00,45.7,27.1,30.07,West,261,8.1,10.1,48,0.00,,,0.00,VWS V13.01,2013-04-19 16:04:00,
2013-04-19 11:09:00,45.3,26.8,30.07,SW,235,8.1,12.8,48,0.00,,,0.00,VWS V13.01,2013-04-19 16:09:00,
2013-04-19 11:14:00,45.1,26.6,30.10,WSW,258,8.3,10.5,48,0.00,,,0.00,VWS V13.01,2013-04-19 16:14:00,
2013-04-19 11:19:00,45.5,27.0,30.10,West,262,12.8,12.8,48,0.00,,,0.00,VWS V13.01,2013-04-19 16:19:00,
2013-04-19 11:24:00,46.2,27.6,30.10,WNW,303,8.1,8.3,48,0.00,,,0.00,VWS V13.01,2013-04-19 16:24:00,
2013-04-19 11:29:00,46.4,27.3,30.10,West,281,6.3,6.3,47,0.00,,,0.00,VWS V13.01,2013-04-19 16:29:00,
2013-04-19 11:34:00,45.7,26.6,30.10,SW,215,6.3,12.3,47,0.00,,,0.00,VWS V13.01,2013-04-19 16:34:00,
2013-04-19 11:39:00,46.4,27.3,30.10,WNW,295,8.3,8.3,47,0.00,,,0.00,VWS V13.01,2013-04-19 16:39:00,
2013-04-19 11:44:00,46.6,27.4,30.10,WSW,252,8.3,9.6,47,0.00,,,0.00,VWS V13.01,2013-04-19 16:44:00,
2013-04-19 11:49:00,46.4,27.3,30.10,West,263,10.1,12.3,47,0.00,,,0.00,VWS V13.01,2013-04-19 16:49:00,
2013-04-19 11:54:00,46.7,28.1,30.10,SW,214,6.3,8.1,48,0.00,,,0.00,VWS V13.01,2013-04-19 16:54:00,
2013-04-19 11:59:00,47.6,28.4,30.10,SW,216,10.1,10.5,47,0.00,,,0.00,VWS V13.01,2013-04-19 16:59:00,
2013-04-19 12:04:00,46.7,27.6,30.10,West,260,8.7,9.2,47,0.00,,,0.00,VWS V13.01,2013-04-19 17:04:00,
2013-04-19 12:09:00,47.3,28.1,30.10,West,260,10.5,13.2,47,0.00,,,0.00,VWS V13.01,2013-04-19 17:09:00,
2013-04-19 12:14:00,47.3,28.6,30.10,West,269,5.8,10.1,48,0.00,,,0.00,VWS V13.01,2013-04-19 17:14:00,
2013-04-19 12:19:00,47.5,28.2,30.10,West,264,10.1,10.1,47,0.00,,,0.00,VWS V13.01,2013-04-19 17:19:00,
2013-04-19 12:24:00,47.5,28.8,30.10,SW,230,9.6,9.6,48,0.00,,,0.00,VWS V13.01,2013-04-19 17:24:00,
2013-04-19 12:29:00,48.2,29.4,30.07,South,174,9.6,9.6,48,0.00,,,0.00,VWS V13.01,2013-04-19 17:29:00,
2013-04-19 12:33:00,49.3,29.9,30.07,West,281,11.0,18.3,47,0.00,,,0.00,VWS V13.01,2013-04-19 17:33:00,
2013-04-19 12:38:00,48.5,29.2,30.07,WSW,254,8.1,8.1,47,0.00,,,0.00,VWS V13.01,2013-04-19 17:38:00,
2013-04-19 12:43:00,49.1,29.7,30.07,WSW,243,11.0,11.0,47,0.00,,,0.00,VWS V13.01,2013-04-19 17:43:00,
2013-04-19 12:48:00,48.9,29.6,30.07,SW,220,12.8,14.5,47,0.00,,,0.00,VWS V13.01,2013-04-19 17:48:00,
2013-04-19 12:53:00,49.4,30.1,30.07,WSW,238,10.5,10.5,47,0.00,,,0.00,VWS V13.01,2013-04-19 17:53:00,
2013-04-19 12:58:00,49.8,30.4,30.07,SW,231,6.3,8.3,47,0.00,,,0.00,VWS V13.01,2013-04-19 17:58:00,
2013-04-19 13:03:00,49.3,29.9,30.07,WSW,240,11.0,12.3,47,0.00,,,0.00,VWS V13.01,2013-04-19 18:03:00,
2013-04-19 13:08:00,50.0,30.0,30.07,West,259,10.5,11.4,46,0.00,,,0.00,VWS V13.01,2013-04-19 18:08:00,
2013-04-19 13:13:00,49.8,29.9,30.07,WSW,253,5.4,8.7,46,0.00,,,0.00,VWS V13.01,2013-04-19 18:13:00,
2013-04-19 13:18:00,50.5,30.5,30.07,SW,225,12.8,17.0,46,0.00,,,0.00,VWS V13.01,2013-04-19 18:18:00,
2013-04-19 13:23:00,50.5,30.5,30.07,SW,236,13.2,15.0,46,0.00,,,0.00,VWS V13.01,2013-04-19 18:23:00,
2013-04-19 13:28:00,50.2,30.2,30.07,WSW,256,7.6,8.7,46,0.00,,,0.00,VWS V13.01,2013-04-19 18:28:00,
2013-04-19 13:33:00,50.9,31.4,30.07,SSW,205,8.7,8.7,47,0.00,,,0.00,VWS V13.01,2013-04-19 18:33:00,
2013-04-19 13:38:00,51.1,31.0,30.07,SW,230,10.5,12.8,46,0.00,,,0.00,VWS V13.01,2013-04-19 18:38:00,
2013-04-19 13:43:00,51.1,31.0,30.07,WSW,246,9.6,11.4,46,0.00,,,0.00,VWS V13.01,2013-04-19 18:43:00,
2013-04-19 13:48:00,51.2,31.2,30.07,SW,218,13.2,13.2,46,0.00,,,0.00,VWS V13.01,2013-04-19 18:48:00,
2013-04-19 13:53:00,51.4,31.4,30.07,WSW,238,11.9,15.0,46,0.00,,,0.00,VWS V13.01,2013-04-19 18:53:00,
2013-04-19 13:58:00,51.6,29.9,30.07,West,266,11.0,15.0,43,0.00,,,0.00,VWS V13.01,2013-04-19 18:58:00,
2013-04-19 14:03:00,52.0,31.3,30.07,SW,226,5.8,10.5,45,0.00,,,0.00,VWS V13.01,2013-04-19 19:03:00,
2013-04-19 14:08:00,52.3,30.5,30.07,SSW,202,5.8,5.8,43,0.00,,,0.00,VWS V13.01,2013-04-19 19:08:00,
2013-04-19 14:13:00,52.3,30.5,30.07,SW,217,8.3,9.6,43,0.00,,,0.00,VWS V13.01,2013-04-19 19:13:00,
2013-04-19 14:18:00,52.5,30.7,30.07,West,281,10.1,10.5,43,0.00,,,0.00,VWS V13.01,2013-04-19 19:18:00,
2013-04-19 14:23:00,53.0,31.2,30.07,SW,228,8.7,11.4,43,0.00,,,0.00,VWS V13.01,2013-04-19 19:23:00,
2013-04-19 14:28:00,52.9,31.0,30.07,WSW,253,8.3,14.5,43,0.00,,,0.00,VWS V13.01,2013-04-19 19:28:00,
2013-04-19 14:33:00,52.9,32.1,30.07,WSW,258,5.8,5.8,45,0.00,,,0.00,VWS V13.01,2013-04-19 19:33:00,
2013-04-19 14:38:00,53.9,31.4,30.07,West,264,7.6,14.5,42,0.00,,,0.00,VWS V13.01,2013-04-19 19:38:00,
2013-04-19 14:43:00,53.6,29.9,30.07,WSW,249,14.1,15.4,40,0.00,,,0.00,VWS V13.01,2013-04-19 19:43:00,
2013-04-19 14:48:00,53.8,31.2,30.07,WSW,251,11.0,13.2,42,0.00,,,0.00,VWS V13.01,2013-04-19 19:48:00,
2013-04-19 14:53:00,54.1,31.5,30.07,West,264,14.1,14.1,42,0.00,,,0.00,VWS V13.01,2013-04-19 19:53:00,
2013-04-19 14:58:00,54.1,30.4,30.04,SW,228,15.4,15.4,40,0.00,,,0.00,VWS V13.01,2013-04-19 19:58:00,
2013-04-19 15:03:00,54.3,30.5,30.04,West,262,4.0,4.0,40,0.00,,,0.00,VWS V13.01,2013-04-19 20:03:00,
2013-04-19 15:08:00,54.7,30.8,30.04,West,268,17.4,17.4,40,0.00,,,0.00,VWS V13.01,2013-04-19 20:08:00,
2013-04-19 15:13:00,54.5,30.7,30.04,WSW,258,7.6,11.0,40,0.00,,,0.00,VWS V13.01,2013-04-19 20:13:00,
2013-04-19 15:18:00,54.8,31.0,30.04,WNW,294,7.6,11.0,40,0.00,,,0.00,VWS V13.01,2013-04-19 20:18:00,
2013-04-19 15:23:00,55.2,30.7,30.04,West,280,13.2,13.2,39,0.00,,,0.00,VWS V13.01,2013-04-19 20:23:00,
2013-04-19 15:28:00,55.2,32.5,30.04,WSW,253,10.1,10.1,42,0.00,,,0.00,VWS V13.01,2013-04-19 20:28:00,
2013-04-19 15:33:00,55.0,31.2,30.04,WSW,255,13.6,15.4,40,0.00,,,0.00,VWS V13.01,2013-04-19 20:33:00,
2013-04-19 15:38:00,55.2,30.7,30.04,SW,219,10.1,10.1,39,0.00,,,0.00,VWS V13.01,2013-04-19 20:38:00,
2013-04-19 15:43:00,55.4,30.9,30.04,SW,215,5.4,12.3,39,0.00,,,0.00,VWS V13.01,2013-04-19 20:43:00,
2013-04-19 15:48:00,55.9,31.3,30.04,WSW,254,10.5,10.5,39,0.00,,,0.00,VWS V13.01,2013-04-19 20:48:00,
2013-04-19 15:53:00,55.6,31.0,30.04,WSW,243,10.1,10.1,39,0.00,,,0.00,VWS V13.01,2013-04-19 20:53:00,
2013-04-19 15:58:00,55.6,31.0,30.04,SSW,192,8.1,8.1,39,0.00,,,0.00,VWS V13.01,2013-04-19 20:58:00,
2013-04-19 16:03:00,55.9,31.3,30.04,SSW,213,5.8,6.3,39,0.00,,,0.00,VWS V13.01,2013-04-19 21:03:00,
2013-04-19 16:08:00,56.1,31.5,30.04,West,260,8.1,12.3,39,0.00,,,0.00,VWS V13.01,2013-04-19 21:08:00,
2013-04-19 16:13:00,56.1,31.5,30.04,WSW,238,8.1,12.8,39,0.00,,,0.00,VWS V13.01,2013-04-19 21:13:00,
2013-04-19 16:18:00,56.1,31.5,30.04,WSW,256,11.0,15.4,39,0.00,,,0.00,VWS V13.01,2013-04-19 21:18:00,
2013-04-19 16:23:00,55.7,31.2,30.04,WNW,288,9.6,11.0,39,0.00,,,0.00,VWS V13.01,2013-04-19 21:23:00,
2013-04-19 16:28:00,56.1,31.5,30.04,SSW,203,7.6,8.7,39,0.00,,,0.00,VWS V13.01,2013-04-19 21:28:00,
2013-04-19 16:33:00,56.3,31.7,30.04,West,264,7.6,8.7,39,0.00,,,0.00,VWS V13.01,2013-04-19 21:33:00,
2013-04-19 16:38:00,56.5,31.8,30.04,WSW,247,12.8,12.8,39,0.00,,,0.00,VWS V13.01,2013-04-19 21:38:00,
2013-04-19 16:43:00,56.3,31.7,30.04,SW,227,8.7,8.7,39,0.00,,,0.00,VWS V13.01,2013-04-19 21:43:00,
2013-04-19 16:48:00,55.9,31.3,30.04,SSW,200,8.3,8.3,39,0.00,,,0.00,VWS V13.01,2013-04-19 21:48:00,
2013-04-19 16:53:00,56.5,31.8,30.04,WSW,246,4.0,7.6,39,0.00,,,0.00,VWS V13.01,2013-04-19 21:53:00,
2013-04-19 16:58:00,56.6,32.0,30.04,SSW,213,11.4,11.4,39,0.00,,,0.00,VWS V13.01,2013-04-19 21:58:00,
2013-04-19 17:03:00,56.1,31.5,30.04,SW,225,6.3,6.3,39,0.00,,,0.00,VWS V13.01,2013-04-19 22:03:00,
2013-04-19 17:08:00,56.3,31.7,30.04,WSW,255,6.3,11.0,39,0.00,,,0.00,VWS V13.01,2013-04-19 22:08:00,
2013-04-19 17:13:00,56.3,31.7,30.04,WSW,246,7.6,8.3,39,0.00,,,0.00,VWS V13.01,2013-04-19 22:13:00,
2013-04-19 17:18:00,56.3,31.7,30.04,West,266,17.4,17.4,39,0.00,,,0.00,VWS V13.01,2013-04-19 22:18:00,
2013-04-19 17:23:00,56.1,31.5,30.04,SW,235,8.7,8.7,39,0.00,,,0.00,VWS V13.01,2013-04-19 22:23:00,
2013-04-19 17:28:00,56.1,31.5,30.04,WSW,239,10.1,11.9,39,0.00,,,0.00,VWS V13.01,2013-04-19 22:28:00,
2013-04-19 17:33:00,56.1,31.5,30.04,SW,220,7.6,10.5,39,0.00,,,0.00,VWS V13.01,2013-04-19 22:33:00,
2013-04-19 17:38:00,56.5,31.8,30.04,SW,231,6.3,10.1,39,0.00,,,0.00,VWS V13.01,2013-04-19 22:38:00,
2013-04-19 17:43:00,56.5,31.8,30.04,WSW,247,10.5,13.2,39,0.00,,,0.00,VWS V13.01,2013-04-19 22:43:00,
2013-04-19 17:48:00,56.3,30.4,30.04,WSW,241,17.9,17.9,37,0.00,,,0.00,VWS V13.01,2013-04-19 22:48:00,
2013-04-19 17:53:00,56.1,31.5,30.04,SW,217,5.8,8.1,39,0.00,,,0.00,VWS V13.01,2013-04-19 22:53:00,
2013-04-19 17:58:00,56.1,31.5,30.04,SW,221,6.7,11.9,39,0.00,,,0.00,VWS V13.01,2013-04-19 22:58:00,
2013-04-19 18:03:00,56.1,31.5,30.04,SSW,198,8.3,8.7,39,0.00,,,0.00,VWS V13.01,2013-04-19 23:03:00,
2013-04-19 18:08:00,56.1,31.5,30.04,West,261,5.4,7.6,39,0.00,,,0.00,VWS V13.01,2013-04-19 23:08:00,
2013-04-19 18:13:00,56.5,31.8,30.04,SW,216,8.7,10.1,39,0.00,,,0.00,VWS V13.01,2013-04-19 23:13:00,
2013-04-19 18:18:00,56.3,31.7,30.01,SSW,212,5.8,8.3,39,0.00,,,0.00,VWS V13.01,2013-04-19 23:18:00,
2013-04-19 18:23:00,56.3,31.7,30.01,SW,226,8.3,11.0,39,0.00,,,0.00,VWS V13.01,2013-04-19 23:23:00,
2013-04-19 18:28:00,55.9,31.3,30.01,WSW,245,11.0,11.0,39,0.00,,,0.00,VWS V13.01,2013-04-19 23:28:00,
2013-04-19 18:33:00,55.9,31.3,30.04,SW,234,5.4,5.8,39,0.00,,,0.00,VWS V13.01,2013-04-19 23:33:00,
2013-04-19 18:38:00,55.9,31.3,30.04,SW,235,6.3,8.1,39,0.00,,,0.00,VWS V13.01,2013-04-19 23:38:00,
2013-04-19 18:43:00,55.9,31.3,30.04,SSW,208,4.9,5.8,39,0.00,,,0.00,VWS V13.01,2013-04-19 23:43:00,
2013-04-19 18:48:00,55.9,31.3,30.04,SW,232,4.9,6.3,39,0.00,,,0.00,VWS V13.01,2013-04-19 23:48:00,
2013-04-19 18:53:00,55.7,31.2,30.04,SSW,207,3.6,5.4,39,0.00,,,0.00,VWS V13.01,2013-04-19 23:53:00,
2013-04-19 18:58:00,55.4,30.9,30.04,SW,227,8.1,11.9,39,0.00,,,0.00,VWS V13.01,2013-04-19 23:58:00,
2013-04-19 19:03:00,55.0,31.2,30.04,WSW,244,8.1,10.5,40,0.00,,,0.00,VWS V13.01,2013-04-20 00:03:00,
2013-04-19 19:07:00,54.8,32.2,30.04,SW,217,6.3,6.3,42,0.00,,,0.00,VWS V13.01,2013-04-20 00:07:00,
2013-04-19 19:12:00,54.5,31.9,30.04,WSW,248,4.0,5.4,42,0.00,,,0.00,VWS V13.01,2013-04-20 00:12:00,
2013-04-19 19:17:00,54.1,30.4,30.04,SW,224,8.7,8.7,40,0.00,,,0.00,VWS V13.01,2013-04-20 00:17:00,
2013-04-19 19:22:00,54.1,31.5,30.04,SSW,194,4.0,4.9,42,0.00,,,0.00,VWS V13.01,2013-04-20 00:22:00,
2013-04-19 19:27:00,53.8,31.2,30.04,SSW,208,4.0,5.8,42,0.00,,,0.00,VWS V13.01,2013-04-20 00:27:00,
2013-04-19 19:32:00,53.4,30.9,30.04,SW,218,5.8,5.8,42,0.00,,,0.00,VWS V13.01,2013-04-20 00:32:00,
2013-04-19 19:37:00,52.9,31.0,30.04,SW,218,5.4,5.4,43,0.00,,,0.00,VWS V13.01,2013-04-20 00:37:00,
2013-04-19 19:42:00,52.5,30.7,30.04,SSW,192,4.0,4.0,43,0.00,,,0.00,VWS V13.01,2013-04-20 00:42:00,
2013-04-19 19:47:00,52.1,30.3,30.04,SSW,201,3.6,4.9,43,0.00,,,0.00,VWS V13.01,2013-04-20 00:47:00,
2013-04-19 19:52:00,51.8,30.0,30.04,SSW,196,3.1,3.6,43,0.00,,,0.00,VWS V13.01,2013-04-20 00:52:00,
2013-04-19 19:57:00,51.4,31.4,30.04,SSW,205,3.1,3.1,46,0.00,,,0.00,VWS V13.01,2013-04-20 00:57:00,
2013-04-19 20:02:00,51.1,31.0,30.07,SSW,212,2.2,2.2,46,0.00,,,0.00,VWS V13.01,2013-04-20 01:02:00,
2013-04-19 20:07:00,50.7,30.7,30.07,SSW,212,0.0,0.0,46,0.00,,,0.00,VWS V13.01,2013-04-20 01:07:00,
2013-04-19 20:12:00,50.3,30.4,30.07,SSW,213,0.0,0.0,46,0.00,,,0.00,VWS V13.01,2013-04-20 01:12:00,
2013-04-19 20:17:00,50.2,30.2,30.07,SSW,213,0.0,0.0,46,0.00,,,0.00,VWS V13.01,2013-04-20 01:17:00,
2013-04-19 20:22:00,49.8,29.9,30.07,SSW,213,0.0,0.0,46,0.00,,,0.00,VWS V13.01,2013-04-20 01:22:00,
2013-04-19 20:27:00,49.4,29.5,30.07,SSW,213,0.0,0.0,46,0.00,,,0.00,VWS V13.01,2013-04-20 01:27:00,
2013-04-19 20:32:00,49.1,29.7,30.07,SSW,213,0.0,0.0,47,0.00,,,0.00,VWS V13.01,2013-04-20 01:32:00,
2013-04-19 20:37:00,48.5,29.2,30.07,SSW,213,0.0,0.0,47,0.00,,,0.00,VWS V13.01,2013-04-20 01:37:00,
2013-04-19 20:42:00,48.2,29.4,30.07,SSW,213,0.0,0.0,48,0.00,,,0.00,VWS V13.01,2013-04-20 01:42:00,
2013-04-19 20:47:00,47.5,29.8,30.07,SSW,213,0.0,0.0,50,0.00,,,0.00,VWS V13.01,2013-04-20 01:47:00,
2013-04-19 20:52:00,46.7,31.0,30.07,SSW,213,0.0,0.0,54,0.00,,,0.00,VWS V13.01,2013-04-20 01:52:00,
2013-04-19 20:57:00,46.4,31.5,30.07,SSW,213,0.0,0.0,56,0.00,,,0.00,VWS V13.01,2013-04-20 01:57:00,
2013-04-19 21:02:00,45.8,31.5,30.07,SSW,213,0.0,0.0,57,0.00,,,0.00,VWS V13.01,2013-04-20 02:02:00,
2013-04-19 21:07:00,45.3,31.4,30.07,SSW,213,0.0,0.0,58,0.00,,,0.00,VWS V13.01,2013-04-20 02:07:00,
2013-04-19 21:12:00,44.8,31.3,30.07,SSW,213,0.0,0.0,59,0.00,,,0.00,VWS V13.01,2013-04-20 02:12:00,
2013-04-19 21:17:00,44.4,31.4,30.07,SSW,213,0.0,0.0,60,0.00,,,0.00,VWS V13.01,2013-04-20 02:17:00,
2013-04-19 21:22:00,44.0,31.5,30.07,SSW,213,0.0,0.0,61,0.00,,,0.00,VWS V13.01,2013-04-20 02:22:00,
2013-04-19 21:27:00,43.7,31.9,30.07,SSW,213,0.0,0.0,63,0.00,,,0.00,VWS V13.01,2013-04-20 02:27:00,
2013-04-19 21:32:00,43.3,31.6,30.10,SSW,213,0.0,0.0,63,0.00,,,0.00,VWS V13.01,2013-04-20 02:32:00,
2013-04-19 21:37:00,42.8,31.5,30.10,SSW,213,0.0,0.0,64,0.00,,,0.00,VWS V13.01,2013-04-20 02:37:00,
2013-04-19 21:42:00,42.4,32.2,30.10,SSW,210,0.0,0.0,67,0.00,,,0.00,VWS V13.01,2013-04-20 02:42:00,
2013-04-19 21:47:00,41.9,32.1,30.10,NNE,26,2.2,3.6,68,0.00,,,0.00,VWS V13.01,2013-04-20 02:47:00,
2013-04-19 21:52:00,41.7,32.3,30.10,NNE,26,0.0,0.0,69,0.00,,,0.00,VWS V13.01,2013-04-20 02:52:00,
2013-04-19 21:57:00,41.5,32.1,30.10,NNE,26,0.0,0.0,69,0.00,,,0.00,VWS V13.01,2013-04-20 02:57:00,
2013-04-19 22:02:00,41.3,32.3,30.10,NNE,26,0.0,0.0,70,0.00,,,0.00,VWS V13.01,2013-04-20 03:02:00,
2013-04-19 22:07:00,41.0,32.3,30.10,NNE,26,0.0,0.0,71,0.00,,,0.00,VWS V13.01,2013-04-20 03:07:00,
2013-04-19 22:12:00,40.8,31.8,30.10,NNE,26,0.0,0.0,70,0.00,,,0.00,VWS V13.01,2013-04-20 03:12:00,
2013-04-19 22:17:00,40.8,32.1,30.10,NNE,26,0.0,0.0,71,0.00,,,0.00,VWS V13.01,2013-04-20 03:17:00,
2013-04-19 22:22:00,40.6,32.0,30.10,NNE,26,0.0,0.0,71,0.00,,,0.00,VWS V13.01,2013-04-20 03:22:00,
2013-04-19 22:27:00,40.3,32.0,30.10,NNE,26,0.0,0.0,72,0.00,,,0.00,VWS V13.01,2013-04-20 03:27:00,
2013-04-19 22:32:00,40.1,32.1,30.10,NNE,26,0.0,0.0,73,0.00,,,0.00,VWS V13.01,2013-04-20 03:32:00,
2013-04-19 22:37:00,39.9,32.0,30.10,NNE,26,0.0,0.0,73,0.00,,,0.00,VWS V13.01,2013-04-20 03:37:00,
2013-04-19 22:42:00,39.7,31.8,30.10,NNE,26,0.0,0.0,73,0.00,,,0.00,VWS V13.01,2013-04-20 03:42:00,
2013-04-19 22:47:00,39.4,33.4,30.10,NNE,26,2.7,3.1,79,0.00,,,0.00,VWS V13.01,2013-04-20 03:47:00,
2013-04-19 22:52:00,39.2,33.2,30.10,NNE,26,2.2,2.7,79,0.00,,,0.00,VWS V13.01,2013-04-20 03:52:00,
2013-04-19 22:57:00,39.2,33.2,30.10,NNE,26,0.0,0.0,79,0.00,,,0.00,VWS V13.01,2013-04-20 03:57:00,
2013-04-19 23:01:00,39.0,33.4,30.10,NNE,26,0.0,0.0,80,0.00,,,0.00,VWS V13.01,2013-04-20 04:01:00,
2013-04-19 23:06:00,39.2,33.2,30.10,NNE,26,0.0,0.0,79,0.00,,,0.00,VWS V13.01,2013-04-20 04:06:00,
2013-04-19 23:11:00,39.0,32.7,30.10,NNE,31,3.6,3.6,78,0.00,,,0.00,VWS V13.01,2013-04-20 04:11:00,
2013-04-19 23:16:00,38.8,33.2,30.10,NE,36,3.1,3.1,80,0.00,,,0.00,VWS V13.01,2013-04-20 04:16:00,
2013-04-19 23:21:00,38.6,32.7,30.10,NE,37,4.0,4.0,79,0.00,,,0.00,VWS V13.01,2013-04-20 04:21:00,
2013-04-19 23:26:00,38.5,32.8,30.10,NE,48,0.0,2.2,80,0.00,,,0.00,VWS V13.01,2013-04-20 04:26:00,
2013-04-19 23:31:00,38.3,32.7,30.07,NE,48,0.0,0.0,80,0.00,,,0.00,VWS V13.01,2013-04-20 04:31:00,
2013-04-19 23:36:00,37.9,33.2,30.07,NE,55,0.0,0.0,83,0.00,,,0.00,VWS V13.01,2013-04-20 04:36:00,
2013-04-19 23:41:00,37.9,33.2,30.07,ENE,57,0.0,0.0,83,0.00,,,0.00,VWS V13.01,2013-04-20 04:41:00,
2013-04-19 23:46:00,37.7,33.3,30.10,ENE,57,0.0,0.0,84,0.00,,,0.00,VWS V13.01,2013-04-20 04:46:00,
2013-04-19 23:51:00,37.7,33.0,30.10,ENE,57,0.0,0.0,83,0.00,,,0.00,VWS V13.01,2013-04-20 04:51:00,
2013-04-19 23:56:00,37.7,33.0,30.10,ENE,57,0.0,0.0,83,0.00,,,0.00,VWS V13.01,2013-04-20 04:56:00,